Birmingham, AL

12:27 PM CDT on October 16, 2019 (GMT -0500)
Birmingham International

Weather History for KBHM - September, 2019

Change the Weather History Date:

Monday, September 16, 2019

  Actual Average Record
Temperature  
Mean Temperature 85 °F 75 °F  
Max Temperature 98 °F 85 °F 101 °F (1927)
Min Temperature 71 °F 64 °F 48 °F (1961)
Degree Days  
Heating Degree Days 0 0  
Month to date heating degree days 0 0  
Since 1 July heating degree days 0 0  
Cooling Degree Days 20 10  
Month to date cooling degree days 286 194  
Year to date cooling degree days 2213 1844  
Growing Degree Days 34 (Base 50)    
Moisture  
Dew Point 65 °F    
Average Humidity 56    
Maximum Humidity 84    
Minimum Humidity 27    
Precipitation  
Precipitation 0.00 in 0.12 in 9.75 in (2004)
Month to date precipitation 0.56 2.08  
Year to date precipitation 37.06 39.16  
Sea Level Pressure  
Sea Level Pressure 30.05 in    
Wind  
Wind Speed 2 mph (NNW)    
Max Wind Speed 12 mph    
Max Gust Speed 15 mph    
Visibility 10 miles    
Events      
T = Trace of Precipitation, MM = Missing Value Source: NWS Daily Summary

Daily Weather History Graph

Daily Weather History Graph

Search for Another Location

Airport or City:

Astronomy

Sep. 16, 2019 Rise Set
Actual Time 6:30 AM CDT 6:52 PM CDT
Civil Twilight 6:06 AM CDT 7:17 PM CDT
Nautical Twilight 5:36 AM CDT 7:46 PM CDT
Astronomical Twilight 5:07 AM CDT 8:15 PM CDT
Moon 8:32 PM CDT 8:33 AM CDT
Length of Visible Light 13h 11m
Length of Day
12h 21m
Waning Gibbous, 94% of the Moon is Illuminated
Sep 16
Waning Gibbous
Sep 21
Last Quarter
Sep 28
New
Oct 5
First Quarter
Oct 13
Full

Hourly Weather History & Observations

Time (CDT) Temp. Heat Index Dew Point Humidity Pressure Visibility Wind Dir Wind Speed Gust Speed Precip Events Conditions
12:53 AM 75.0 °F - 66.9 °F 76% 30.07 in 10.0 mi Calm Calm - N/A   Partly Cloudy
1:53 AM 75.0 °F - 66.9 °F 76% 30.07 in 10.0 mi Calm Calm - N/A   Clear
2:53 AM 73.0 °F - 66.9 °F 81% 30.06 in 10.0 mi Calm Calm - N/A   Clear
3:53 AM 72.0 °F - 66.0 °F 81% 30.07 in 10.0 mi Calm Calm - N/A   Clear
4:53 AM 73.0 °F - 66.9 °F 81% 30.08 in 10.0 mi Calm Calm - N/A   Clear
5:53 AM 72.0 °F - 66.9 °F 84% 30.09 in 10.0 mi Calm Calm - N/A   Clear
6:53 AM 72.0 °F - 66.9 °F 84% 30.10 in 10.0 mi Calm Calm - N/A   Partly Cloudy
7:53 AM 77.0 °F - 68.0 °F 74% 30.12 in 10.0 mi Calm Calm - N/A   Clear
8:53 AM 82.9 °F 86.5 °F 69.1 °F 63% 30.12 in 10.0 mi Calm Calm - N/A   Clear
9:53 AM 88.0 °F 90.7 °F 66.9 °F 49% 30.12 in 10.0 mi Calm Calm - N/A   Clear
10:53 AM 90.0 °F 92.8 °F 66.9 °F 46% 30.11 in 10.0 mi WSW 4.6 mph - N/A   Clear
11:53 AM 93.0 °F 94.6 °F 64.0 °F 38% 30.09 in 10.0 mi ESE 8.1 mph - N/A   Partly Cloudy
12:53 PM 96.1 °F 97.3 °F 63.0 °F 33% 30.07 in 10.0 mi Variable 6.9 mph - N/A   Partly Cloudy
1:53 PM 96.1 °F 96.9 °F 62.1 °F 32% 30.04 in 10.0 mi Variable 4.6 mph - N/A   Partly Cloudy
2:53 PM 96.1 °F 96.9 °F 62.1 °F 32% 30.02 in 10.0 mi Variable 3.5 mph - N/A   Scattered Clouds
3:53 PM 96.1 °F 96.4 °F 61.0 °F 31% 30.00 in 10.0 mi Calm Calm - N/A   Scattered Clouds
4:53 PM 97.0 °F 96.1 °F 57.9 °F 27% 29.99 in 10.0 mi Calm Calm - N/A   Partly Cloudy
5:53 PM 93.9 °F 93.2 °F 59.0 °F 31% 29.99 in 10.0 mi NNW 8.1 mph - N/A   Partly Cloudy
6:53 PM 88.0 °F 87.6 °F 60.1 °F 39% 29.99 in 10.0 mi North 5.8 mph - N/A   Clear
7:53 PM 82.9 °F 84.0 °F 63.0 °F 51% 30.00 in 10.0 mi Calm Calm - N/A   Clear
8:53 PM 81.0 °F 82.5 °F 64.0 °F 56% 30.01 in 10.0 mi Calm Calm - N/A   Clear
9:53 PM 78.1 °F - 66.0 °F 66% 30.01 in 10.0 mi Calm Calm - N/A   Clear
10:53 PM 77.0 °F - 64.0 °F 64% 30.01 in 10.0 mi Calm Calm - N/A   Clear
11:53 PM 75.9 °F - 66.0 °F 71% 30.01 in 10.0 mi Calm Calm - N/A   Clear